TimeCST,TemperatureF,Dew PointF,Humidity,Sea Level PressureIn,VisibilityMPH,Wind Direction,Wind SpeedMPH,Gust SpeedMPH,PrecipitationIn,Events,Conditions,WindDirDegrees,DateUTC
12:15 AM,33.8,30.2,87,30.41,7.0,SE,3.5,-,N/A,,Clear,130,2012-11-18 06:15:00
12:35 AM,33.8,30.2,87,30.41,7.0,Calm,Calm,-,N/A,,Clear,0,2012-11-18 06:35:00
12:55 AM,35.6,30.2,81,30.41,7.0,Calm,Calm,-,N/A,,Clear,0,2012-11-18 06:55:00
1:15 AM,35.6,30.2,81,30.41,7.0,SE,3.5,-,N/A,,Clear,130,2012-11-18 07:15:00
1:35 AM,35.6,30.2,81,30.41,7.0,Calm,Calm,-,N/A,,Clear,0,2012-11-18 07:35:00
1:55 AM,32.0,28.4,87,30.41,5.0,Calm,Calm,-,N/A,,Haze,0,2012-11-18 07:55:00
2:15 AM,33.8,30.2,87,30.41,7.0,Calm,Calm,-,N/A,,Clear,0,2012-11-18 08:15:00
2:55 AM,33.8,30.2,87,30.40,5.0,Calm,Calm,-,N/A,,Haze,0,2012-11-18 08:55:00
3:15 AM,32.0,28.4,87,30.39,7.0,Calm,Calm,-,N/A,,Clear,0,2012-11-18 09:15:00
3:35 AM,33.8,30.2,87,30.39,7.0,Calm,Calm,-,N/A,,Clear,0,2012-11-18 09:35:00
3:55 AM,32.0,28.4,87,30.39,5.0,SE,3.5,-,N/A,,Haze,130,2012-11-18 09:55:00
4:15 AM,32.0,28.4,87,30.39,5.0,Calm,Calm,-,N/A,,Clear,0,2012-11-18 10:15:00
4:35 AM,32.0,28.4,87,30.39,5.0,Calm,Calm,-,N/A,,Haze,0,2012-11-18 10:35:00
5:45 AM,32.0,28.4,87,30.39,6.0,Calm,Calm,-,N/A,,Clear,0,2012-11-18 11:45:00
6:52 AM,30.2,26.6,86,30.30,6.0,SE,4.6,-,N/A,,Clear,130,2012-11-18 12:52:00
7:45 AM,33.8,30.2,87,30.39,6.0,SE,4.6,-,N/A,,Haze,130,2012-11-18 13:45:00
8:45 AM,41.0,33.8,76,30.39,6.0,SSE,5.8,-,N/A,,Haze,150,2012-11-18 14:45:00
9:50 AM,46.4,33.8,62,30.31,6.0,SSE,8.1,-,N/A,,Haze,160,2012-11-18 15:50:00
10:45 AM,51.8,32.0,47,30.37,6.0,SSE,8.1,-,N/A,,Haze,160,2012-11-18 16:45:00
11:45 AM,53.6,30.2,41,30.34,6.0,SSE,11.5,-,N/A,,Haze,160,2012-11-18 17:45:00
1:45 PM,55.4,28.4,36,30.32,6.0,South,13.8,-,N/A,,Haze,170,2012-11-18 19:45:00
2:45 PM,53.6,28.4,38,30.31,6.0,SSE,11.5,17.3,N/A,,Haze,160,2012-11-18 20:45:00
3:45 PM,51.8,32.0,47,30.31,6.0,SSE,9.2,-,N/A,,Haze,150,2012-11-18 21:45:00
4:45 PM,44.6,32.0,61,30.32,10.0,SE,6.9,-,N/A,,Clear,140,2012-11-18 22:45:00
5:45 PM,42.8,33.8,70,30.32,10.0,SE,6.9,-,N/A,,Clear,140,2012-11-18 23:45:00
7:45 PM,41.0,33.8,76,30.31,10.0,SE,6.9,-,N/A,,Clear,140,2012-11-19 01:45:00
8:15 PM,41.0,32.0,70,30.31,10.0,SSE,6.9,-,N/A,,Clear,150,2012-11-19 02:15:00
8:35 PM,44.6,32.0,61,30.31,10.0,SSE,6.9,-,N/A,,Clear,150,2012-11-19 02:35:00
8:45 PM,44.6,33.8,66,30.31,10.0,SSE,6.9,-,N/A,,Clear,150,2012-11-19 02:45:00
8:55 PM,44.6,32.0,61,30.30,10.0,SE,8.1,-,N/A,,Clear,140,2012-11-19 02:55:00
9:15 PM,44.6,32.0,61,30.30,10.0,SE,6.9,-,N/A,,Clear,140,2012-11-19 03:15:00
9:35 PM,44.6,32.0,61,30.29,10.0,SSE,6.9,-,N/A,,Clear,160,2012-11-19 03:35:00
9:55 PM,44.6,32.0,61,30.29,10.0,SSE,6.9,-,N/A,,Clear,160,2012-11-19 03:55:00
10:15 PM,46.4,32.0,57,30.29,10.0,South,6.9,-,N/A,,Clear,170,2012-11-19 04:15:00
10:35 PM,46.4,32.0,57,30.29,10.0,South,6.9,-,N/A,,Clear,170,2012-11-19 04:35:00
10:55 PM,46.4,32.0,57,30.29,10.0,SSE,8.1,-,N/A,,Clear,160,2012-11-19 04:55:00
11:15 PM,46.4,32.0,57,30.28,10.0,South,8.1,-,N/A,,Clear,170,2012-11-19 05:15:00
11:55 PM,44.6,32.0,61,30.28,10.0,SSE,4.6,-,N/A,,Clear,160,2012-11-19 05:55:00